GW1822 Weather Reports


time (UTC)temp
C
wind
direction
speed
KPH
gust
KPH
rain 1hr
cm
rain 24hr
cm
rain mn
cm
humidity
%
barometer
mb
20260906171223 25 191 3.2 6.4 0.00 0.00 0.00 68 1021.6
20260906170723 25 278 1.6 3.2 0.00 0.00 0.00 70 1021.6
20260906170223 25 183 1.6 3.2 0.00 0.00 0.00 66 1021.6
20260906165727 25 182 1.6 6.4 0.00 0.00 0.00 65 1021.6
20260906165223 25 206 3.2 4.8 0.00 0.00 0.00 69 1021.6
20260906164723 25 176 1.6 3.2 0.00 0.00 0.00 68 1021.6
20260906164223 25 201 1.6 3.2 0.00 0.00 0.00 67 1021.6
20260906163724 25 162 1.6 3.2 0.00 0.00 0.00 68 1021.7
20260906163223 25 307 1.6 3.2 0.00 0.00 0.00 68 1021.7
20260906162724 25 204 1.6 4.8 0.00 0.00 0.00 65 1021.7
20260906162224 25 289 1.6 3.2 0.00 0.00 0.00 65 1021.7
20260906161723 25 327 0.0 1.6 0.00 0.00 0.00 66 1021.8
20260906161223 25 197 1.6 3.2 0.00 0.00 0.00 65 1021.7
20260906160723 24 259 1.6 3.2 0.00 0.00 0.00 65 1021.7
20260906160224 23 32 0.0 1.6 0.00 0.00 0.00 67 1021.6
20260906155724 23 16 0.0 0.0 0.00 0.00 0.00 73 1021.7
20260906155223 23 107 1.6 3.2 0.00 0.00 0.00 72 1021.6
20260906154723 23 214 1.6 4.8 0.00 0.00 0.00 74 1021.5
20260906154223 23 32 1.6 3.2 0.00 0.00 0.00 73 1021.5
20260906153723 22 104 1.6 3.2 0.00 0.00 0.00 72 1021.5
20260906153223 22 169 1.6 4.8 0.00 0.00 0.00 74 1021.6
20260906152723 22 213 0.0 1.6 0.00 0.00 0.00 77 1021.6
20260906152223 22 265 0.0 1.6 0.00 0.00 0.00 77 1021.6
20260906151723 22 239 0.0 1.6 0.00 0.00 0.00 77 1021.6
20260906151223 22 169 1.6 4.8 0.00 0.00 0.00 77 1021.5
20260906150724 22 134 3.2 6.4 0.00 0.00 0.00 78 1021.6
20260906150223 21 73 0.0 1.6 0.00 0.00 0.00 82 1021.7
20260906145723 21 154 1.6 4.8 0.00 0.00 0.00 81 1021.7
20260906145224 21 267 3.2 3.2 0.00 0.00 0.00 80 1021.6
20260906144724 21 4 0.0 1.6 0.00 0.00 0.00 83 1021.6
20260906144223 20 4 0.0 3.2 0.00 0.00 0.00 84 1021.6
20260906143724 20 223 0.0 3.2 0.00 0.00 0.00 85 1021.5
20260906143223 20 340 1.6 6.4 0.00 0.00 0.00 88 1021.5
20260906142723 19 32 1.6 3.2 0.00 0.00 0.00 89 1021.6
20260906142224 18 18 1.6 4.8 0.00 0.00 0.00 92 1021.6
20260906141724 18 104 1.6 3.2 0.00 0.00 0.00 93 1021.5
20260906141223 17 15 1.6 4.8 0.00 0.00 0.00 96 1021.4
20260906140723 17 52 3.2 6.4 0.00 0.00 0.00 98 1021.4
20260906140224 17 348 3.2 3.2 0.00 0.00 0.00 100 1021.5
20260906135723 16 16 0.0 1.6 0.00 0.00 0.00 100 1021.5
20260906135223 16 348 3.2 3.2 0.00 0.00 0.00 100 1021.6
20260906134723 16 14 0.0 1.6 0.00 0.00 0.00 100 1021.7
20260906134224 15 9 1.6 4.8 0.00 0.00 0.00 100 1021.8
20260906133723 15 4 0.0 1.6 0.00 0.00 0.00 100 1021.8
20260906133225 15 12 1.6 1.6 0.00 0.00 0.00 100 1021.9
20260906132724 15 359 1.6 1.6 0.00 0.00 0.00 100 1021.9
20260906132224 14 355 1.6 3.2 0.00 0.00 0.00 100 1021.8
20260906131723 14 359 1.6 3.2 0.00 0.00 0.00 100 1021.8
20260906131224 14 357 1.6 4.8 0.00 0.00 0.00 100 1021.9
20260906130724 14 360 0.0 0.0 0.00 0.00 0.00 100 1021.8
20260906130224 14 360 0.0 0.0 0.00 0.00 0.00 100 1021.7
20260906125723 13 345 0.0 3.2 0.00 0.00 0.00 100 1021.7
20260906125223 13 332 0.0 0.0 0.00 0.00 0.00 100 1021.6
20260906124735 13 360 0.0 0.0 0.00 0.00 0.00 100 1021.5
20260906124223 13 348 1.6 3.2 0.00 0.00 0.00 100 1021.6
20260906123723 13 360 0.0 0.0 0.00 0.00 0.00 100 1021.5
20260906123223 13 345 1.6 3.2 0.00 0.00 0.00 100 1021.5
20260906122723 13 338 1.6 3.2 0.00 0.00 0.00 100 1021.5
20260906122223 13 360 0.0 0.0 0.00 0.00 0.00 100 1021.4
20260906121723 13 333 0.0 3.2 0.00 0.00 0.00 100 1021.5
20260906121223 13 334 1.6 3.2 0.00 0.00 0.00 100 1021.4
20260906120723 13 342 1.6 3.2 0.00 0.00 0.00 100 1021.3
20260906120223 13 335 0.0 3.2 0.00 0.00 0.00 100 1021.3
20260906115723 13 350 0.0 1.6 0.00 0.00 0.00 100 1021.2
20260906115224 13 357 1.6 3.2 0.00 0.00 0.00 100 1021.1
20260906114724 13 360 0.0 0.0 0.00 0.00 0.00 100 1021.1
20260906114223 13 360 0.0 0.0 0.00 0.00 0.00 100 1020.9
20260906113723 13 360 0.0 0.0 0.00 0.00 0.00 100 1020.7
20260906113223 13 7 0.0 1.6 0.00 0.00 0.00 100 1020.7
20260906112723 13 9 1.6 1.6 0.00 0.00 0.00 100 1020.7
20260906112223 13 33 1.6 4.8 0.00 0.00 0.00 100 1020.8
20260906111723 13 350 3.2 3.2 0.00 0.00 0.00 100 1020.8
20260906111224 13 358 0.0 3.2 0.00 0.00 0.00 100 1020.9
20260906110723 13 351 1.6 3.2 0.00 0.00 0.00 100 1020.9
20260906110223 13 360 0.0 0.0 0.00 0.00 0.00 100 1020.9
20260906105723 13 357 0.0 3.2 0.00 0.00 0.00 100 1020.8
20260906105223 13 358 0.0 1.6 0.00 0.00 0.00 100 1020.7
20260906104723 13 360 0.0 0.0 0.00 0.00 0.00 100 1020.7
20260906104223 13 6 1.6 3.2 0.00 0.00 0.00 100 1020.7
20260906103724 13 13 1.6 1.6 0.00 0.00 0.00 100 1020.7
20260906103223 13 2 1.6 3.2 0.00 0.00 0.00 100 1020.7
20260906102723 13 359 1.6 3.2 0.00 0.00 0.00 100 1020.6
20260906102223 13 1 1.6 3.2 0.00 0.00 0.00 100 1020.6
20260906101723 13 4 1.6 3.2 0.00 0.00 0.00 100 1020.6
20260906101223 13 7 0.0 1.6 0.00 0.00 0.00 100 1020.5
20260906100723 13 10 1.6 1.6 0.00 0.00 0.00 100 1020.5
20260906100223 13 3 1.6 3.2 0.00 0.00 0.00 100 1020.4
20260906095723 13 2 1.6 3.2 0.00 0.00 0.00 100 1020.5
20260906095223 13 356 1.6 3.2 0.00 0.00 0.00 100 1020.5
20260906094723 13 3 1.6 3.2 0.00 0.00 0.00 100 1020.5
20260906094223 14 15 0.0 1.6 0.00 0.00 0.00 100 1020.5
20260906093723 14 360 0.0 0.0 0.00 0.00 0.00 100 1020.4
20260906093223 14 32 1.6 4.8 0.00 0.00 0.00 100 1020.4
20260906092723 14 354 1.6 3.2 0.00 0.00 0.00 100 1020.5
20260906092223 14 351 0.0 1.6 0.00 0.00 0.00 100 1020.5
20260906091724 14 354 1.6 3.2 0.00 0.00 0.00 100 1020.5
20260906091223 14 347 3.2 3.2 0.00 0.00 0.00 100 1020.5
20260906090724 14 360 1.6 3.2 0.00 0.00 0.00 100 1020.5
20260906090223 14 346 0.0 3.2 0.00 0.00 0.00 100 1020.6
20260906085724 14 347 1.6 3.2 0.00 0.00 0.00 100 1020.7
20260906085223 14 1 0.0 0.0 0.00 0.00 0.00 100 1020.6
20260906084723 14 360 1.6 3.2 0.00 0.00 0.00 100 1020.6
20260906084223 14 91 3.2 6.4 0.00 0.00 0.00 100 1020.6
20260906083724 14 36 0.0 0.0 0.00 0.00 0.00 100 1020.7
20260906083225 14 13 1.6 4.8 0.00 0.00 0.00 100 1020.6
20260906082723 15 360 0.0 0.0 0.00 0.00 0.00 100 1020.5
20260906082224 15 29 0.0 1.6 0.00 0.00 0.00 100 1020.4
20260906081723 15 9 0.0 3.2 0.00 0.00 0.00 100 1020.2
20260906081224 15 27 3.2 6.4 0.00 0.00 0.00 100 1020.1
20260906080725 15 358 3.2 6.4 0.00 0.00 0.00 100 1020.2
20260906080223 15 107 4.8 6.4 0.00 0.00 0.00 100 1020.2
20260906075723 15 46 1.6 3.2 0.00 0.00 0.00 100 1020.4
20260906075224 15 10 1.6 1.6 0.00 0.00 0.00 100 1020.2
20260906074723 15 15 1.6 3.2 0.00 0.00 0.00 100 1020.2
20260906074223 15 7 0.0 1.6 0.00 0.00 0.00 100 1020.4
20260906073723 15 360 0.0 0.0 0.00 0.00 0.00 100 1020.5
20260906073223 15 360 0.0 0.0 0.00 0.00 0.00 100 1020.4
20260906072723 15 18 1.6 1.6 0.00 0.00 0.00 100 1020.2
20260906072223 16 18 0.0 1.6 0.00 0.00 0.00 100 1020.2
20260906071723 16 360 0.0 0.0 0.00 0.00 0.00 100 1020.2
20260906071223 16 360 0.0 0.0 0.00 0.00 0.00 100 1020.4
20260906070724 16 9 0.0 1.6 0.00 0.00 0.00 100 1020.4
20260906070223 16 348 0.0 1.6 0.00 0.00 0.00 100 1020.5
20260906065724 16 351 0.0 1.6 0.00 0.00 0.00 100 1020.4
20260906065223 16 5 1.6 1.6 0.00 0.00 0.00 100 1020.2
20260906064724 16 14 1.6 1.6 0.00 0.00 0.00 100 1020.4
20260906064223 16 13 0.0 1.6 0.00 0.00 0.00 100 1020.5
20260906063724 16 7 0.0 1.6 0.00 0.00 0.00 100 1020.6
20260906063223 16 360 0.0 0.0 0.00 0.00 0.00 100 1020.6
20260906062723 16 360 0.0 0.0 0.00 0.00 0.00 100 1020.6
20260906062223 16 12 0.0 1.6 0.00 0.00 0.00 100 1020.6
20260906061723 16 359 0.0 1.6 0.00 0.00 0.00 100 1020.6
20260906061223 16 360 0.0 0.0 0.00 0.00 0.00 100 1020.6
20260906060723 16 342 0.0 3.2 0.00 0.00 0.00 100 1020.6
20260906060223 16 360 0.0 0.0 0.00 0.00 0.00 100 1020.5
20260906055723 16 348 3.2 3.2 0.00 0.00 0.00 100 1020.4
20260906055224 16 360 0.0 0.0 0.00 0.00 0.00 100 1020.1
20260906054723 16 16 1.6 1.6 0.00 0.00 0.00 100 1020.1
20260906054224 16 341 0.0 1.6 0.00 0.00 0.00 100 1020.2
20260906053723 16 360 0.0 0.0 0.00 0.00 0.00 100 1020.2
20260906053223 16 360 0.0 0.0 0.00 0.00 0.00 100 1020.1
20260906052723 16 360 0.0 0.0 0.00 0.00 0.00 100 1020.0
20260906052223 16 360 0.0 0.0 0.00 0.00 0.00 100 1019.9
20260906051723 16 360 0.0 0.0 0.00 0.00 0.00 100 1019.9
20260906051223 16 360 0.0 0.0 0.00 0.00 0.00 99 1019.8
20260906050723 16 360 0.0 0.0 0.00 0.00 0.00 99 1019.8
20260906050223 16 345 0.0 1.6 0.00 0.00 0.00 99 1019.8
20260906045726 16 349 0.0 1.6 0.00 0.00 0.00 99 1019.7
20260906045223 16 7 1.6 1.6 0.00 0.00 0.00 99 1019.7
20260906044724 16 360 0.0 0.0 0.00 0.00 0.00 99 1019.7
20260906044223 16 3 0.0 1.6 0.00 0.00 0.00 99 1019.6
20260906043723 16 10 1.6 1.6 0.00 0.00 0.00 99 1019.6
20260906043224 16 360 0.0 0.0 0.00 0.00 0.00 99 1019.5
20260906042723 16 360 0.0 0.0 0.00 0.00 0.00 99 1019.6
20260906042224 16 360 0.0 0.0 0.00 0.00 0.00 99 1019.6
20260906041723 16 360 0.0 0.0 0.00 0.00 0.00 99 1019.5
20260906041224 16 360 0.0 0.0 0.00 0.00 0.00 99 1019.4
20260906040723 16 351 0.0 3.2 0.00 0.00 0.00 99 1019.4
20260906040223 16 355 1.6 3.2 0.00 0.00 0.00 99 1019.3
20260906035723 16 3 0.0 1.6 0.00 0.00 0.00 99 1019.2
20260906035224 16 360 0.0 0.0 0.00 0.00 0.00 99 1019.2
20260906034723 16 360 1.6 1.6 0.00 0.00 0.00 99 1019.2
20260906034223 16 352 1.6 3.2 0.00 0.00 0.00 99 1019.2
20260906033724 16 23 1.6 1.6 0.00 0.00 0.00 99 1019.2
20260906033223 16 28 0.0 0.0 0.00 0.00 0.00 99 1019.1
20260906032723 17 39 0.0 1.6 0.00 0.00 0.00 99 1018.9
20260906032223 17 22 1.6 1.6 0.00 0.00 0.00 99 1019.0
20260906031724 17 360 0.0 0.0 0.00 0.00 0.00 99 1019.1
20260906031224 17 360 0.0 0.0 0.00 0.00 0.00 99 1019.0
20260906030723 17 360 0.0 0.0 0.00 0.00 0.00 99 1019.0
20260906030223 17 360 0.0 0.0 0.00 0.00 0.00 98 1018.9
20260906025723 17 360 0.0 0.0 0.00 0.00 0.00 98 1018.8
20260906025224 17 27 1.6 1.6 0.00 0.00 0.00 98 1018.8
20260906024724 17 8 0.0 1.6 0.00 0.00 0.00 98 1018.9
20260906024226 17 360 0.0 0.0 0.00 0.00 0.00 98 1019.0
20260906023723 17 360 0.0 0.0 0.00 0.00 0.00 98 1018.9
20260906023223 17 360 0.0 0.0 0.00 0.00 0.00 98 1018.8
20260906022723 17 360 0.0 0.0 0.00 0.00 0.00 98 1018.8
20260906022223 17 44 0.0 1.6 0.00 0.00 0.00 98 1018.7
20260906021724 17 360 0.0 0.0 0.00 0.00 0.00 98 1018.8
20260906021225 18 11 0.0 1.6 0.00 0.00 0.00 98 1018.8
20260906020723 18 360 0.0 0.0 0.00 0.00 0.00 98 1018.8
20260906020223 18 360 0.0 0.0 0.00 0.00 0.00 97 1018.7
20260906015724 18 360 0.0 0.0 0.00 0.00 0.00 97 1018.6
20260906015223 18 360 0.0 0.0 0.00 0.00 0.00 97 1018.6
20260906014723 18 360 0.0 0.0 0.00 0.00 0.00 97 1018.5
20260906014223 18 360 0.0 0.0 0.00 0.00 0.00 97 1018.4
20260906013723 18 32 0.0 1.6 0.00 0.00 0.00 97 1018.4
20260906013223 18 32 0.0 1.6 0.00 0.00 0.00 97 1018.5
20260906012723 18 24 0.0 1.6 0.00 0.00 0.00 96 1018.5
20260906012223 18 28 0.0 1.6 0.00 0.00 0.00 96 1018.5
20260906011723 18 360 0.0 0.0 0.00 0.00 0.00 96 1018.4
20260906011223 19 31 0.0 1.6 0.00 0.00 0.00 95 1018.4
20260906010723 19 91 0.0 1.6 0.00 0.00 0.00 95 1018.4
20260906010223 19 360 0.0 0.0 0.00 0.00 0.00 94 1018.3
20260906005724 20 360 0.0 0.0 0.00 0.00 0.00 94 1018.3
20260906005224 20 360 0.0 0.0 0.00 0.00 0.00 94 1018.3
20260906004723 20 360 0.0 0.0 0.00 0.00 0.00 93 1018.2
20260906004223 20 360 0.0 0.0 0.00 0.00 0.00 92 1018.0
20260906003723 21 360 0.0 0.0 0.00 0.00 0.00 91 1018.0
20260906003223 21 58 0.0 1.6 0.00 0.00 0.00 89 1018.0
20260906002724 21 42 0.0 1.6 0.00 0.00 0.00 87 1018.1
20260906002224 22 360 0.0 0.0 0.00 0.00 0.00 86 1018.0
20260906001724 22 77 1.6 1.6 0.00 0.00 0.00 85 1018.0
20260906001224 22 359 0.0 0.0 0.00 0.00 0.00 83 1018.1
20260906000724 22 72 0.0 1.6 0.00 0.00 0.00 82 1018.1
20260906000223 23 193 0.0 1.6 0.00 0.00 0.00 82 1018.1
20260905235723 23 68 1.6 3.2 0.00 0.00 0.00 81 1018.1
20260905235223 23 40 0.0 1.6 0.00 0.00 0.00 81 1018.1
20260905234723 23 184 3.2 4.8 0.00 0.00 0.00 80 1018.1
20260905234223 23 85 0.0 1.6 0.00 0.00 0.00 81 1018.1
20260905233724 23 360 0.0 0.0 0.00 0.00 0.00 81 1018.1
20260905233223 24 360 0.0 0.0 0.00 0.00 0.00 80 1018.1
20260905232724 25 360 0.0 0.0 0.00 0.00 0.00 80 1018.1
20260905232224 26 311 0.0 1.6 0.00 0.00 0.00 75 1018.1
20260905231723 26 87 0.0 1.6 0.00 0.00 0.00 72 1018.0
20260905231223 26 208 3.2 4.8 0.00 0.00 0.00 72 1017.9
20260905230723 26 227 0.0 3.2 0.00 0.00 0.00 72 1017.9
20260905230223 26 77 0.0 0.0 0.00 0.00 0.00 74 1018.0
20260905225723 26 360 0.0 0.0 0.00 0.00 0.00 72 1018.0
20260905225223 26 312 0.0 1.6 0.00 0.00 0.00 71 1018.1
20260905224723 26 164 1.6 4.8 0.00 0.00 0.00 70 1018.1
20260905224225 26 198 3.2 6.4 0.00 0.00 0.00 69 1018.1
20260905223723 26 274 0.0 1.6 0.00 0.00 0.00 71 1018.1
20260905223223 26 200 1.6 4.8 0.00 0.00 0.00 71 1018.1
20260905222723 25 187 3.2 4.8 0.00 0.00 0.00 74 1018.0
20260905222224 25 182 0.0 1.6 0.00 0.00 0.00 76 1018.1
20260905221723 25 360 0.0 0.0 0.00 0.00 0.00 78 1018.2
20260905221223 26 28 0.0 1.6 0.00 0.00 0.00 77 1018.3
20260905220724 26 1 0.0 1.6 0.00 0.00 0.00 75 1018.2
20260905220224 26 360 0.0 0.0 0.00 0.00 0.00 74 1018.1
20260905215723 27 243 0.0 3.2 0.00 0.00 0.00 69 1018.1
20260905215223 27 213 1.6 4.8 0.00 0.00 0.00 69 1018.1
20260905214723 27 217 3.2 4.8 0.00 0.00 0.00 72 1018.1
20260905214223 27 233 1.6 3.2 0.00 0.00 0.00 69 1018.1
20260905213723 26 117 0.0 3.2 0.00 0.00 0.00 69 1018.0
20260905213223 26 199 3.2 6.4 0.00 0.00 0.00 70 1018.0
20260905212723 26 230 0.0 4.8 0.00 0.00 0.00 70 1018.0
20260905212223 26 217 3.2 8.0 0.00 0.00 0.00 69 1018.0
20260905211728 26 334 1.6 3.2 0.00 0.00 0.00 70 1018.0
20260905211223 26 9 0.0 3.2 0.00 0.00 0.00 71 1018.0
20260905210723 26 217 1.6 3.2 0.00 0.00 0.00 73 1018.0
20260905210223 26 192 3.2 6.4 0.00 0.00 0.00 71 1018.2
20260905205723 25 194 1.6 4.8 0.00 0.00 0.00 72 1018.3
20260905205223 25 217 1.6 3.2 0.00 0.00 0.00 74 1018.4
20260905204723 25 309 0.0 1.6 0.00 0.00 0.00 79 1018.4
20260905204224 25 360 0.0 0.0 0.00 0.00 0.00 72 1018.3
20260905203723 25 360 0.0 0.0 0.00 0.00 0.00 76 1018.4
20260905203225 25 313 1.6 3.2 0.00 0.00 0.00 74 1018.5
20260905202723 26 318 1.6 3.2 0.00 0.00 0.00 74 1018.5
20260905202224 26 302 1.6 3.2 0.00 0.00 0.00 70 1018.4
20260905201723 26 223 1.6 3.2 0.00 0.00 0.00 73 1018.4
20260905201223 26 319 1.6 3.2 0.00 0.00 0.00 74 1018.4
20260905200724 26 121 0.0 1.6 0.00 0.00 0.00 72 1018.5
20260905200223 26 22 1.6 4.8 0.00 0.00 0.00 73 1018.5
20260905195724 25 228 3.2 6.4 0.00 0.00 0.00 73 1018.5
20260905195223 25 198 1.6 4.8 0.00 0.00 0.00 76 1018.5
20260905194723 25 356 0.0 3.2 0.00 0.00 0.00 78 1018.5
20260905194223 25 178 1.6 3.2 0.00 0.00 0.00 74 1018.5
20260905193723 26 228 3.2 6.4 0.00 0.00 0.00 73 1018.6
20260905193223 26 195 1.6 4.8 0.00 0.00 0.00 74 1018.5
20260905192724 26 50 0.0 1.6 0.00 0.00 0.00 74 1018.6
20260905192223 25 221 3.2 6.4 0.00 0.00 0.00 73 1018.6
20260905191724 25 237 3.2 3.2 0.00 0.00 0.00 76 1018.7
20260905191223 25 204 3.2 4.8 0.00 0.00 0.00 77 1018.6
20260905190724 24 191 1.6 6.4 0.00 0.00 0.00 79 1018.6
20260905190223 23 151 1.6 4.8 0.00 0.00 0.00 81 1018.6
20260905185723 23 357 0.0 1.6 0.00 0.00 0.00 82 1018.6
20260905185223 23 322 0.0 1.6 0.00 0.00 0.00 83 1018.6
20260905184723 23 208 1.6 3.2 0.00 0.00 0.00 83 1018.6
20260905184223 23 343 0.0 3.2 0.00 0.00 0.00 87 1018.7
20260905183723 23 27 1.6 8.0 0.00 0.00 0.00 83 1018.7
20260905183223 23 340 1.6 3.2 0.00 0.00 0.00 86 1018.7
20260905182723 23 247 3.2 4.8 0.00 0.00 0.00 83 1018.6
20260905182223 23 356 0.0 3.2 0.00 0.00 0.00 84 1018.7
20260905181723 23 350 1.6 3.2 0.00 0.00 0.00 84 1018.7
20260905181223 22 41 1.6 1.6 0.00 0.00 0.00 85 1018.8
20260905180723 22 59 1.6 3.2 0.00 0.00 0.00 84 1018.8
20260905180224 22 206 0.0 3.2 0.00 0.00 0.00 85 1018.8
20260905175723 22 166 0.0 1.6 0.00 0.00 0.00 86 1019.0
20260905175223 22 348 0.0 1.6 0.00 0.00 0.00 86 1018.9
20260905174724 22 336 0.0 1.6 0.00 0.00 0.00 85 1018.9
20260905174223 22 48 0.0 3.2 0.00 0.00 0.00 85 1018.9
20260905173723 22 336 1.6 3.2 0.00 0.00 0.00 85 1018.9
20260905173224 22 17 0.0 1.6 0.00 0.00 0.00 86 1019.0
20260905172723 22 360 0.0 0.0 0.00 0.00 0.00 86 1018.9
20260905172223 22 60 0.0 1.6 0.00 0.00 0.00 89 1019.0
20260905171723 22 146 0.0 3.2 0.00 0.00 0.00 88 1018.9